BREEZE-M DEB, 38613

Orbit data source: Space-Track

BREEZE-M DEB, 38613 is space debris in HEO originally from a launch on Fri, 14 Mar 2008 UTC launched from the Tyuratam Missile And Space Complex (TTMTR). Debris objects in space refer to the collection of defunct objects orbiting the Earth. Examples of debris include non-operational satellites, rocket bodies, and fragments generated from explosions, collisions, or faulty payload assembly.

Loading next visibility...
Identifier
38613, 2008-011BL
Orbit
HEO
Country
Flag of CISCIS
Related business
Manufacturer
Unknown
Mission
Spacecraft
Bus & Motor
Unknown
Mass
Unknown
Launch date (UTC)
2008-03-14 (18 years ago)
Launch vehicle
Unknown
Launch site
Tyuratam Missile And Space Complex (TTMTR)
Object type
Payload
Rocket body
Debris
Shape & HBR
Unknown shape, 1.1 m
Radar Cross Section
Medium (>0.1 m² and <1 m²)

Expand to show TLE details & history
Last TLE update: 2 months ago

TLE from 2 months ago
0 BREEZE-M DEB
1 38613U 08011BL  26123.12160326  .00008294  00000-0  50195-2 0  9991
2 38613  48.9129 345.3259 6258429 231.1621  54.2629  3.60772400  3368
Epoch: 2026-05-03T02:55Z
TLE epoch observation values (Epoch: 2026-05-03T02:55:06.521Z)
Latitude
0.00001°
Longitude
80.53086°
Altitude
11,604.723 km
Speed
4.705 km/s
True Right ascension
23h 01m 21s
True Declination
0° 00' 00"
Sunlit
Object was in daylight at epoch
Visualization orbit readout
Latitude
Unknown
Longitude
Unknown
Altitude
Unknown
Speed
Unknown
Apparent Right ascension
Unknown
Apparent Declination
Unknown
Sunlit
N/A
Visualization observer readout
Local Sidereal Time
05:03:37
Azimuth
Unknown
Elevation
Unknown
Doppler factor
Unknown
Orbital elements
Apogee altitude
22,819.226 km
Perigee altitude
341.086 km
Semi-major axis
17,958.293 km
Eccentricity
0.62584
Inclination
48.9129°
RAAN
345.3259°
Arg. of periapsis
231.1621°
True anomaly
128.83837°
Mean anomaly
54.2629°
Eccentric anomaly
90.12098°
Mean motion
0.90187 °/min
Orbital period
399.17 mins
BSTAR
0.0050195
Loading maneuver chart data...
Computing Atmospheric mass density...
Loading historical data...
Loading historical data...
Loading historical data...
Loading historical data...
Loading historical data...
Loading historical data...
Loading historical data...

Documentation

Showing up to 5 results
|